Regional Weather Roundup
Issued by NWS Cleveland, OH

Home | Current Version | Previous Version | Text Only | Print | Product List | Glossary Off
Versions: 1 2 3 4 5 6 7 8 9 10 11 12 13 14 15 16 17 18 19 20 21 22 23 24 25 26 27 28 29 30 31 32 33 34 35 36 37 38 39 40 41 42 43 44 45 46 47 48 49 50

000
ASUS41 KCLE 310800
RWRCLE
OHIO REGIONAL WEATHER ROUNDUP
NATIONAL WEATHER SERVICE WILMINGTON, OH
400 AM EDT FRI OCT 31 2014

NOTE: "FAIR" INDICATES FEW OR NO CLOUDS BELOW 12,000 FEET WITH NO
SIGNIFICANT WEATHER AND/OR OBSTRUCTIONS TO VISIBILITY.

OHZ001>008-015>018-024>027-034-035-043-044-310900-
   NORTHWEST OHIO

CITY           SKY/WX    TMP DP  RH WIND       PRES   REMARKS
DEFIANCE       CLOUDY    44  36  73 SW5       29.98F
FINDLAY        CLOUDY    44  36  73 SW7       29.98F
TOLEDO EXPRESS CLOUDY    44  35  70 SW5       29.97F
TOLEDO METCALF CLOUDY    45  36  70 SW5       29.98F
LIMA           CLOUDY    44  35  70 S6        29.98F
$$

OHZ009>014-019>023-028>033-038-089-310900-
   NORTHEAST OHIO

CITY           SKY/WX    TMP DP  RH WIND       PRES   REMARKS
CLE-HOPKINS    CLOUDY    44  35  70 S8        30.00F
CLE-LAKEFRONT    N/A    N/A N/A N/A MISG        N/A
CUY CO. ARPT   NOT AVBL
LORAIN-ELYRIA  CLOUDY    43  37  79 SW6       29.99F
ASHTABULA      CLOUDY    40  37  89 S5        29.98F
AKRON-CANTON   CLOUDY    44  39  82 CALM      29.98F
WOOSTER        NOT AVBL
MANSFIELD      CLOUDY    42  34  73 SW5       29.98F
YOUNGSTOWN     CLOUDY    42  38  85 S3        29.98F
$$

OHZ042-051>053-060>062-070>072-077>081-310900-
  SOUTHWEST OHIO

CITY           SKY/WX    TMP DP  RH WIND       PRES   REMARKS
CINC-COVINGTON LGT RAIN  44  40  85 CALM      30.01F
CINC-LUNKEN    LGT RAIN  43  40  89 CALM      30.03F
HAMILTON       LGT RAIN  43  42  97 CALM      30.03F
DAYTON         NOT AVBL
WRIGHT-PAT AFB CLOUDY    41  38  89 SW1       30.00F
DAYTON GENERAL LGT RAIN  43  37  79 CALM      30.00F
WILMINGTON     CLOUDY    40  35  83 CALM      30.00F
$$

OHZ036-037-039>041-045>050-054>059-063>069-073>076-082>088-310900-
  CENTRAL AND SOUTHEAST OHIO

CITY           SKY/WX    TMP DP  RH WIND       PRES   REMARKS
COLUMBUS       CLOUDY    43  36  76 CALM      30.00F
OSU AIRPORT    LGT RAIN  42  35  76 SW5       30.00F
BOLTON FIELD   NOT AVBL
RICKENBACK AFB NOT AVBL
NEWARK         CLOUDY    44  36  73 CALM      30.00F
MARION         CLOUDY    42  35  76 CALM      29.99F
LANCASTER      CLOUDY    39  36  89 CALM      30.00F
ZANESVILLE     CLOUDY    42  37  82 SE3       30.00F
NEW PHILLY     CLOUDY    44  40  85 CALM      30.00F
$$



USA.gov is the U.S. government's official web portal to all federal, state and local government web resources and services.